Location: Igon
(43.1667°N, 0.2333°W)
Time: 04:30:52
(UTC+00:00)

NOAA 16 DEB - Pass Details

Date: 19 June 2021
Orbit: 682 x 809 km, 98.9° (Epoch: 03 August)

Event Time Altitude Azimuth Distance (km) Brightness Sun altitude
Rises 03:35:00 0° 154° (SSE) 3,302 ? -7.4°
Reaches altitude 10° 03:37:20 10° 151° (SSE) 2,383 ? -7.1°
Maximum altitude 03:42:33 63° 72° (ENE) 906 ? -6.4°
Drops below altitude 10° 03:47:48 10° 352° (N) 2,401 ? -5.7°
Sets 03:50:10 0° 350° (N) 3,328 ? -5.3°
